Flag for Poland Weather past 2 weeks in Zielona Góra, Poland

Now
61 °F

Overcast.


Feels Like: 61 °F
Forecast: 46 / 62 °F
Wind: 3 mph from Southwest

Location: Zielona Gora

Current Time: May 6, 2015 at 2:30:54 PM

Latest Report: May 6, 2015 at 1:00 PM


Visibility: 25 mi

Pressure: 29.94 "Hg

Humidity: 53%

Dew point: 44 °F

Location of Zielona GóraLocation

Historic Weather in Zielona Góra — Graph

°F

Zielona Góra temperature yesterday

Maximum temperature yesterday: 75 °F (at 4:00 PM)
Minimum temperature yesterday: 56 °F (at 6:00 AM)
Average temperature yesterday: 66 °F

Past Weeks' High & Low Weather Summary

 TemperatureHumidityPressure
High75 °F (May 5, 4:00 PM)99% (May 4, 4:00 AM)30.27 "Hg (May 4, 4:00 AM)
Low36 °F (Apr 29, 6:00 AM)22% (Apr 21, 2:00 PM)29.50 "Hg (Apr 27, 6:00 PM)
Average55 °F61%29.90 "Hg
* Reported Apr 21 1:00 PM — May 6 1:00 PM, Zielona Góra, Weather by CustomWeather, © 2015

Note: Actual official high and low records may vary slightly from our data, if they occured in-between our weather recording intervals... More about our weather records

Advertising

Zielona Góra weather history for previous 24 hours

 ConditionsComfort  
Time TempWeatherWind HumidityBarometerVisibility
1:00 PM
Wed, May 6
61 °FOvercast.3 mph53%29.94 "Hg25 mi
12:00 PM60 °FOvercast.1 mph48%29.94 "Hg25 mi
11:00 AM59 °FOvercast.1 mph53%29.93 "Hg25 mi
10:00 AM58 °FOvercast.2 mph54%29.92 "Hg25 mi
9:00 AM57 °FOvercast.3 mph54%29.93 "Hg28 mi
8:00 AM56 °FOvercast.5 mph57%29.93 "Hg28 mi
7:00 AM56 °FOvercast.5 mph67%29.91 "Hg28 mi
6:00 AM57 °FOvercast.5 mph65%29.90 "Hg25 mi
5:00 AM59 °FOvercast.3 mph65%29.89 "Hg31 mi
4:00 AM60 °FOvercast.3 mph67%29.87 "Hg31 mi
3:00 AM61 °FOvercast.3 mph71%29.86 "Hg31 mi
2:00 AM63 °FOvercast.3 mph63%29.85 "Hg31 mi
1:00 AM65 °FOvercast.5 mph58%29.82 "Hg31 mi
12:00 AM68 °FPassing clouds.3 mph66%29.78 "Hg19 mi
10:00 PM
Tue, May 5
69 °FOvercast.3 mph73%29.73 "Hg16 mi
9:00 PM70 °FOvercast.3 mph72%29.72 "Hg16 mi
8:00 PM71 °FSprinkles. Overcast.2 mph69%29.71 "Hg19 mi
7:00 PM72 °FOvercast.3 mph66%29.71 "Hg19 mi
6:00 PM74 °FOvercast.3 mph67%29.68 "Hg19 mi
5:00 PM74 °FOvercast.2 mph66%29.69 "Hg16 mi
4:00 PM75 °FSprinkles. Overcast.3 mph60%29.70 "Hg16 mi
3:00 PM75 °FOvercast.3 mph60%29.69 "Hg16 mi
2:00 PM75 °FOvercast.5 mph60%29.68 "Hg16 mi
Weather by CustomWeather, © 2015

See weather overviewHow to use our weather pages